STARLINK-3305, 50166

Orbit data source: Space-Track

STARLINK-3305, 50166 is a payload satellite owned by SpaceX/Seattle (US) in LEO that was launched on Sat, 18 Dec 2021 UTC via an FALCON 9 launch vehicle from the Air Force Western Test Range (AFWTR). Payload-class satellites include a variety of spacecraft equipped with specific instruments for various scientific and technological missions. These include communications satellites like Starlink; space stations such as the ISS; scientific satellites like the Hubble; Earth observation satellites from companies like Planet Labs, Umbra, and HawkEye 360; GPS; miniature CubeSats for education and research; and military/defense satellites.

Loading next visibility...
Identifier
50166, 2021-125L
Orbit
LEO
Country
Flag of USUS
Related business
Manufacturer
SpaceX/Seattle
Mission
Operational Commercial Communications
Bus & Motor
STARLINK, Unknown motor
Mass
290 kg wet, ~270 kg dry
Launch date (UTC)
2021-12-18 (5 years ago)
Launch vehicle
FALCON 9
Launch site
Air Force Western Test Range (AFWTR)
Object type
Payload
Rocket body
Debris
Shape & HBR
Box + 1 Pan, 10.1 m
Radar Cross Section
13.562 m², Large (>1 m²)

Expand to show TLE details & history
Last TLE update: 3 hours ago

TLE from 3 hours ago
0 STARLINK-3305
1 50166U 21125L   26170.18714769  .00000222  00000-0  32046-4 0  9993
2 50166  53.1602 153.3065 0001278  90.6469 269.4669 15.08829618251910
Epoch: 2026-06-19T04:29Z
TLE epoch observation values (Epoch: 2026-06-19T04:29:29.560Z)
Latitude
-0.00001°
Longitude
178.5136°
Altitude
540.675 km
Speed
7.593 km/s
True Right ascension
10h 13m 13s
True Declination
0° 00' 00"
Sunlit
Object was in daylight at epoch
Visualization orbit readout
Latitude
Unknown
Longitude
Unknown
Altitude
Unknown
Speed
Unknown
Apparent Right ascension
Unknown
Apparent Declination
Unknown
Sunlit
N/A
Visualization observer readout
Local Sidereal Time
18:45:46
Azimuth
Unknown
Elevation
Unknown
Doppler factor
Unknown
Orbital elements
Apogee altitude
540.913 km
Perigee altitude
539.145 km
Semi-major axis
6,918.166 km
Eccentricity
0.00013
Inclination
53.1602°
RAAN
153.3065°
Arg. of periapsis
90.6469°
True anomaly
269.45226°
Mean anomaly
269.4669°
Eccentric anomaly
269.45958°
Mean motion
3.77187 °/min
Orbital period
95.44 mins
BSTAR
0.000032046
Loading maneuver chart data...
Computing Atmospheric mass density...

Documentation

Showing up to 5 results
|